Weather History for Jackson Hawkins Field, MS

Change the Weather History Date:

Thursday, June 20, 2013

  Actual Average (KJAN) Record (KJAN)
Temperature  
Mean Temperature 80 °F 80 °F  
Max Temperature 90 °F 90 °F 105 °F (1936)
Min Temperature 71 °F 70 °F 56 °F (1985)
Degree Days  
Heating Degree Days 0 0  
Month to date heating degree days 0  
Since 1 June heating degree days 0  
Since 1 July heating degree days 2391  
Cooling Degree Days 16 15  
Month to date cooling degree days 265  
Year to date cooling degree days 623  
Since 1 June cooling degree days 265  
Growing Degree Days 30 (Base 50)    
Moisture  
Dew Point 70 °F    
Average Humidity 73    
Maximum Humidity 93    
Minimum Humidity 48    
Precipitation  
Precipitation 0.00 in 0.14 in 2.94 in (1920)
Month to date precipitation 2.65  
Year to date precipitation 26.76  
Sea Level Pressure  
Sea Level Pressure 30.06 in    
Wind  
Wind Speed 2 mph (East)    
Max Wind Speed 25 mph    
Max Gust Speed 28 mph    
Visibility 10 miles    
Events      
T = Trace of Precipitation, MM = Missing Value Source: NWS Daily Summary

Daily Weather History Graph

Daily Weather History Graph

Search for Another Location

Airport:

Trip Planner

Search our weather history database for the weather conditions in past years. The results will help you decide how hot, cold, wet, or windy it might be!

Date:

Astronomy

Jun. 20, 2013 Rise Set
Actual Time 5:54 AM CDT 8:10 PM CDT
Civil Twilight 5:25 AM CDT 8:39 PM CDT
Nautical Twilight 4:51 AM CDT 9:14 PM CDT
Astronomical Twilight 4:13 AM CDT 9:51 PM CDT
Moon 5:18 PM CDT (6/20) 3:13 AM CDT (6/20)
Length of Visible Light 15h 13m
Length of Day
14h 16m
Waxing Gibbous, 89% of the Moon is Illuminated
Jun 20
Waxing Gibbous
Jun 23
Full
Jun 29
Last Quarter
Jul 8
New
Jul 15
First Quarter

Hourly Weather History & Observations

Time (CDT) Temp. Heat Index Dew Point Humidity Pressure Visibility Wind Dir Wind Speed Gust Speed Precip Events Conditions
12:53 AM 73.9 °F - 71.1 °F 91% 30.03 in 10.0 mi Calm Calm - N/A   Clear
1:53 AM 73.0 °F - 70.0 °F 90% 30.02 in 10.0 mi Calm Calm - N/A   Clear
2:53 AM 73.0 °F - 70.0 °F 90% 30.02 in 10.0 mi Calm Calm - N/A   Clear
3:53 AM 72.0 °F - 70.0 °F 93% 30.01 in 10.0 mi Calm Calm - N/A   Clear
4:53 AM 72.0 °F - 70.0 °F 93% 30.03 in 10.0 mi ENE 3.5 mph - N/A   Clear
5:53 AM 71.1 °F - 69.1 °F 93% 30.04 in 6.0 mi North - - N/A   Clear
6:53 AM 73.9 °F - 71.1 °F 91% 30.06 in 10.0 mi Calm Calm - N/A   Clear
7:53 AM 75.9 °F - 71.1 °F 85% 30.09 in 10.0 mi Calm Calm - N/A   Clear
8:53 AM 79.0 °F - 71.1 °F 77% 30.10 in 10.0 mi Calm Calm - N/A   Mostly Cloudy
9:53 AM 82.0 °F 86.3 °F 71.1 °F 69% 30.11 in 10.0 mi Calm Calm - N/A   Clear
10:53 AM 86.0 °F 92.2 °F 72.0 °F 63% 30.11 in 10.0 mi ESE 6.9 mph - N/A   Mostly Cloudy
11:31 AM 84.2 °F 89.6 °F 71.6 °F 66% 30.13 in 10.0 mi SE 5.8 mph - N/A   Mostly Cloudy
11:45 AM 86.0 °F 91.8 °F 71.6 °F 62% 30.12 in 10.0 mi Calm Calm - N/A   Scattered Clouds
11:53 AM 87.1 °F 93.6 °F 72.0 °F 61% 30.10 in 10.0 mi NE 3.5 mph - N/A   Partly Cloudy
12:53 PM 88.0 °F 94.7 °F 72.0 °F 59% 30.09 in 10.0 mi East 5.8 mph - N/A   Partly Cloudy
1:53 PM 88.0 °F 92.1 °F 69.1 °F 53% 30.08 in 10.0 mi SE 4.6 mph - N/A   Clear
2:53 PM 90.0 °F 95.4 °F 70.0 °F 52% 30.06 in 10.0 mi Variable 4.6 mph - N/A   Partly Cloudy
3:53 PM 88.0 °F 92.9 °F 70.0 °F 55% 30.05 in 10.0 mi Calm Calm - N/A   Mostly Cloudy
4:53 PM 90.0 °F 93.6 °F 68.0 °F 48% 30.04 in 10.0 mi Variable 6.9 mph - N/A   Partly Cloudy
5:53 PM 87.1 °F 90.6 °F 68.0 °F 53% 30.04 in 10.0 mi NNW 25.3 mph - N/A   Scattered Clouds
6:53 PM 86.0 °F 88.8 °F 66.9 °F 53% 30.04 in 10.0 mi NE 15.0 mph 27.6 mph N/A   Partly Cloudy
7:53 PM 84.9 °F 88.8 °F 69.1 °F 59% 30.04 in 10.0 mi Calm Calm - N/A   Clear
8:53 PM 75.0 °F - 69.1 °F 82% 30.05 in 10.0 mi Calm Calm - N/A   Clear
9:53 PM 73.9 °F - 70.0 °F 87% 30.07 in 10.0 mi Calm Calm - N/A   Clear
10:53 PM 73.0 °F - 70.0 °F 90% 30.08 in 10.0 mi Calm Calm - N/A   Clear
11:53 PM 73.0 °F - 71.1 °F 93% 30.08 in 10.0 mi East 3.5 mph - N/A   Clear